CEB991 RPLL-RPMR

Flight info

Callsign CEB991
Flight time N/A
Altitude 39000
Route VERDE2R VERDE A461 SAJ W3 IOO B472 COT W19 MELBY MELBY3P
Aircraft A339/H-SADE1E2E3GHIJ3J5M1P2RWXY/LB2D1

Departure

Time N/A
Airport Ninoy Aquino International Airport (RPLL)

Arrival

Time 2026-05-01 13:29
Airport General Santos International Airport (RPMR)
Time Latitude Longitude Altitude Speed Heading
2026-05-01 12:37 9.92121 122.92347 38874 ft 467 kts 154°
2026-05-01 12:38 9.86290 122.95090 38874 ft 465 kts 154°
2026-05-01 12:38 9.80450 122.97835 38873 ft 463 kts 154°
2026-05-01 12:39 9.74645 123.00562 38873 ft 463 kts 155°
2026-05-01 12:39 9.68833 123.03288 38873 ft 463 kts 155°
2026-05-01 12:40 9.63009 123.06031 38873 ft 463 kts 155°
2026-05-01 12:40 9.57194 123.08770 38873 ft 464 kts 155°
2026-05-01 12:41 9.51337 123.11523 38873 ft 465 kts 155°
2026-05-01 12:41 9.45514 123.14254 38872 ft 466 kts 155°
2026-05-01 12:42 9.39646 123.16996 38873 ft 465 kts 155°
2026-05-01 12:42 9.33787 123.19740 38873 ft 466 kts 155°
2026-05-01 12:43 9.27955 123.22476 38874 ft 465 kts 155°
2026-05-01 12:43 9.22108 123.25222 38873 ft 465 kts 155°
2026-05-01 12:44 9.16242 123.27978 38873 ft 465 kts 155°
2026-05-01 12:45 9.04542 123.33459 38873 ft 465 kts 155°
2026-05-01 12:45 8.98704 123.36188 38873 ft 464 kts 155°
2026-05-01 12:46 8.92865 123.38918 38873 ft 463 kts 155°
2026-05-01 12:46 8.87085 123.41625 38873 ft 463 kts 155°
2026-05-01 12:47 8.81237 123.44359 38873 ft 463 kts 155°
2026-05-01 12:47 8.75425 123.47070 38873 ft 463 kts 155°
2026-05-01 12:48 8.69615 123.49777 38873 ft 463 kts 155°
2026-05-01 12:48 8.63800 123.52490 38873 ft 463 kts 155°
2026-05-01 12:49 8.57943 123.55222 38873 ft 463 kts 155°
2026-05-01 12:49 8.52144 123.57932 38873 ft 463 kts 155°
2026-05-01 12:50 8.46304 123.60656 38873 ft 463 kts 155°
2026-05-01 12:50 8.40513 123.63353 38873 ft 463 kts 155°
2026-05-01 12:51 8.34699 123.66062 38874 ft 462 kts 155°
2026-05-01 12:52 8.25975 123.70129 38873 ft 463 kts 155°
2026-05-01 12:52 8.20144 123.72846 38572 ft 462 kts 155°
2026-05-01 12:52 8.17227 123.74205 38294 ft 459 kts 155°
2026-05-01 12:53 8.11489 123.76885 37273 ft 461 kts 155°
2026-05-01 12:53 8.08555 123.78252 36575 ft 464 kts 155°
2026-05-01 12:53 8.05639 123.79607 35853 ft 468 kts 155°
2026-05-01 12:54 8.02689 123.80978 35113 ft 471 kts 155°
2026-05-01 12:54 7.96759 123.83736 33933 ft 469 kts 155°
2026-05-01 12:54 7.93833 123.85096 33370 ft 468 kts 155°
2026-05-01 12:55 7.87933 123.87839 32216 ft 466 kts 155°
2026-05-01 12:55 7.85024 123.89191 31699 ft 463 kts 155°
2026-05-01 12:55 7.82131 123.90538 31270 ft 459 kts 155°
2026-05-01 12:56 7.79271 123.91873 30885 ft 453 kts 155°
2026-05-01 12:56 7.76414 123.93201 30513 ft 447 kts 155°
2026-05-01 12:56 7.73628 123.94496 30151 ft 442 kts 155°
2026-05-01 12:56 7.70860 123.95783 29793 ft 437 kts 155°
2026-05-01 12:57 7.68134 123.97051 29437 ft 432 kts 155°
2026-05-01 12:57 7.62786 123.99538 28730 ft 422 kts 155°
2026-05-01 12:57 7.60146 124.00765 28379 ft 418 kts 155°
2026-05-01 12:58 7.57523 124.01983 28035 ft 413 kts 155°
2026-05-01 12:58 7.54929 124.03187 27687 ft 409 kts 155°
2026-05-01 12:58 7.52365 124.04378 27342 ft 405 kts 155°
2026-05-01 12:59 7.47308 124.06724 26650 ft 397 kts 155°
2026-05-01 12:59 7.44843 124.07868 26313 ft 394 kts 155°
2026-05-01 12:59 7.39934 124.10148 25632 ft 387 kts 156°
2026-05-01 13:00 7.35079 124.12404 24951 ft 381 kts 156°
2026-05-01 13:00 7.32688 124.13515 24609 ft 378 kts 156°
2026-05-01 13:01 7.27990 124.15692 23939 ft 373 kts 156°
2026-05-01 13:01 7.25621 124.16789 23597 ft 370 kts 156°
2026-05-01 13:01 7.20996 124.18930 22925 ft 366 kts 156°
2026-05-01 13:02 7.18716 124.20031 22588 ft 364 kts 153°
2026-05-01 13:07 6.78943 124.51537 15519 ft 336 kts 144°
2026-05-01 13:07 6.77140 124.52996 15177 ft 335 kts 144°
2026-05-01 13:07 6.75324 124.54466 14833 ft 335 kts 144°
2026-05-01 13:08 6.73502 124.55941 14488 ft 334 kts 144°
2026-05-01 13:08 6.71716 124.57387 14150 ft 334 kts 144°
2026-05-01 13:08 6.69893 124.58862 13805 ft 333 kts 144°
2026-05-01 13:08 6.68108 124.60307 13466 ft 333 kts 144°
2026-05-01 13:09 6.66295 124.61762 13124 ft 332 kts 145°
2026-05-01 13:09 6.64460 124.63167 12783 ft 332 kts 146°
2026-05-01 13:09 6.62624 124.64548 12446 ft 331 kts 146°
2026-05-01 13:09 6.60806 124.65916 12112 ft 330 kts 146°
2026-05-01 13:10 6.58956 124.67311 11774 ft 330 kts 146°
2026-05-01 13:10 6.57141 124.68683 11446 ft 329 kts 145°
2026-05-01 13:10 6.55317 124.70063 11118 ft 328 kts 145°
2026-05-01 13:10 6.53491 124.71446 10791 ft 327 kts 145°
2026-05-01 13:11 6.51687 124.72813 10470 ft 326 kts 145°
2026-05-01 13:11 6.49890 124.74175 10152 ft 325 kts 144°
2026-05-01 13:11 6.48114 124.75522 10046 ft 315 kts 144°
2026-05-01 13:11 6.46392 124.76831 10025 ft 304 kts 144°
2026-05-01 13:12 6.44750 124.78077 9976 ft 294 kts 144°
2026-05-01 13:12 6.43116 124.79314 9688 ft 294 kts 144°
2026-05-01 13:12 6.41488 124.80546 9398 ft 293 kts 144°
2026-05-01 13:12 6.39874 124.81780 9122 ft 293 kts 141°
2026-05-01 13:13 6.38402 124.83180 8851 ft 292 kts 132°
2026-05-01 13:13 6.37148 124.84776 8590 ft 291 kts 126°
2026-05-01 13:13 6.35996 124.86437 8332 ft 289 kts 124°
2026-05-01 13:13 6.34876 124.88086 8078 ft 288 kts 124°
2026-05-01 13:14 6.33745 124.89741 7822 ft 286 kts 124°
2026-05-01 13:14 6.32617 124.91379 7569 ft 284 kts 124°
2026-05-01 13:14 6.31476 124.93002 7313 ft 283 kts 128°
2026-05-01 13:14 6.30134 124.94436 7055 ft 282 kts 139°
2026-05-01 13:15 6.28568 124.95602 6805 ft 280 kts 146°
2026-05-01 13:15 6.28371 124.95734 6774 ft 280 kts 147°
2026-05-01 13:17 6.27063 124.96583 6573 ft 279 kts 147°
2026-05-01 13:17 6.25443 124.97615 6325 ft 278 kts 147°
2026-05-01 13:18 6.22198 124.99696 5825 ft 275 kts 147°
2026-05-01 13:18 6.20601 125.00730 5577 ft 274 kts 147°
2026-05-01 13:18 6.19018 125.01758 5330 ft 273 kts 147°
2026-05-01 13:18 6.17416 125.02799 5079 ft 272 kts 147°
2026-05-01 13:19 6.15833 125.03830 4831 ft 271 kts 147°
2026-05-01 13:19 6.14252 125.04858 4587 ft 270 kts 147°
2026-05-01 13:19 6.11199 125.06844 4492 ft 252 kts 147°
2026-05-01 13:20 6.09773 125.07771 4489 ft 242 kts 147°
2026-05-01 13:20 6.08382 125.08676 4491 ft 237 kts 147°
2026-05-01 13:20 6.07038 125.09621 4469 ft 235 kts 142°
2026-05-01 13:21 6.04513 125.11616 4140 ft 227 kts 141°
2026-05-01 13:21 6.03278 125.12603 4003 ft 222 kts 141°
2026-05-01 13:21 6.02091 125.13548 3877 ft 217 kts 141°
2026-05-01 13:21 6.00922 125.14478 3756 ft 211 kts 141°
2026-05-01 13:22 5.99775 125.15389 3546 ft 211 kts 141°
2026-05-01 13:22 5.98613 125.16312 3242 ft 217 kts 141°
2026-05-01 13:22 5.97395 125.17282 3022 ft 230 kts 141°
2026-05-01 13:22 5.96280 125.18411 2987 ft 230 kts 115°
2026-05-01 13:23 5.96030 125.19933 2978 ft 217 kts 78°
2026-05-01 13:23 5.96280 125.21370 2989 ft 205 kts 92°
2026-05-01 13:23 5.95764 125.22626 2964 ft 195 kts 140°
2026-05-01 13:23 5.94530 125.23074 2998 ft 194 kts 184°
2026-05-01 13:24 5.93218 125.22772 3027 ft 195 kts 204°
2026-05-01 13:24 5.92050 125.22098 3025 ft 194 kts 220°
2026-05-01 13:24 5.91165 125.21112 3024 ft 193 kts 241°
2026-05-01 13:25 5.90829 125.18614 3024 ft 175 kts 290°
2026-05-01 13:25 5.91275 125.17486 3030 ft 174 kts 295°
2026-05-01 13:25 5.91772 125.16366 3028 ft 174 kts 295°
2026-05-01 13:25 5.92260 125.15250 3027 ft 174 kts 294°
2026-05-01 13:26 5.92738 125.14127 3027 ft 174 kts 294°
2026-05-01 13:26 5.93202 125.13012 3027 ft 174 kts 294°
2026-05-01 13:26 5.93668 125.11884 2989 ft 174 kts 295°
2026-05-01 13:26 5.94420 125.10997 2769 ft 170 kts 338°
2026-05-01 13:27 5.95563 125.10720 2506 ft 171 kts 353°
2026-05-01 13:27 5.96778 125.10601 2139 ft 178 kts 353°
2026-05-01 13:27 5.99134 125.10355 1771 ft 162 kts 354°
2026-05-01 13:28 6.01382 125.10211 1055 ft 164 kts 350°
2026-05-01 13:28 6.02477 125.10030 841 ft 154 kts 353°
2026-05-01 13:29 6.04492 125.09779 503 ft 133 kts 353°
2026-05-01 13:29 6.05739 125.09628 501 ft 43 kts 353°
2026-05-01 13:30 6.06240 125.09605 501 ft 5 kts 71°
2026-05-01 13:31 6.06256 125.09699 501 ft 8 kts 83°
2026-05-01 13:31 6.06202 125.09826 501 ft 8 kts 176°
2026-05-01 13:32 6.06069 125.09840 501 ft 10 kts 173°
2026-05-01 13:33 6.05816 125.09870 501 ft 13 kts 173°
2026-05-01 13:33 6.05713 125.09898 501 ft 3 kts 101°
2026-05-01 13:34 6.05716 125.09952 501 ft 3 kts 85°
2026-05-01 13:34 6.05716 125.09957 501 ft 0 kts 85°
2026-05-01 13:35 6.05716 125.09956 501 ft 0 kts 85°
2026-05-01 13:46 6.05716 125.09957 501 ft 0 kts 85°